Hourly Data Report for November 17, 2017

VICTORIA UNIVERSITY CS
BRITISH COLUMBIA

48°27'25.200" N
123°18'16.600" W
60.10 m
1018598
71783
WYJ

Download Data

Hourly Data (November 2017)
Hourly Data Report for November 17, 2017
TIME
LST
Temp Definition
°C
Dew Point Definition
°C
Rel Hum Definition
%
Precip. Amount Definition
mm

Wind Dir Definition
10's deg

Wind Spd Definition
km/h
Visibility Definition
km
Stn Press Definition
kPa
Hmdx Definition


Wind Chill Definition


Weather Definition


00:00 5.6 3.7 88 0.0 25 9   99.81     LegendNANA
01:00 4.6 2.0 84 0.0 26 5   99.91     LegendNANA
02:00 3.2 2.1 93 0.0 26 3   100.04     LegendNANA
03:00 2.6 2.0 96 0.0 30 3   100.15     LegendNANA
04:00 3.5 2.7 94 0.0 27 5   100.24     LegendNANA
05:00 3.6 2.4 91 0.0 27 4   100.34     LegendNANA
06:00 4.1 2.3 88 0.0 25 6   100.42     LegendNANA
07:00 4.6 2.8 88 0.0 25 6   100.54     LegendNANA
08:00 4.8 3.2 90 0.0 25 7   100.66     LegendNANA
09:00 6.0 3.7 85 0.0 24 11   100.79     LegendNANA
10:00 7.4 3.9 78 0.0 25 10   100.93     LegendNANA
11:00 8.4 3.3 70 0.3 24 10   101.02     LegendNANA
12:00 7.8 3.8 76 0.0 24 15   101.11     LegendNANA
13:00 8.0 4.0 76 0.0 26 11   101.19     LegendNANA
14:00 8.8 3.4 69 0.0 24 9   101.28     LegendNANA
15:00 8.0 4.4 78 0.0 25 9   101.35     LegendNANA
16:00 7.2 3.6 77 0.0 24 6   101.44     LegendNANA
17:00 6.3 3.1 80 0.0 27 5   101.50     LegendNANA
18:00 5.5 3.3 86 0.0   0   101.55     LegendNANA
19:00 6.4 3.7 83 0.2 22 1   101.60     LegendNANA
20:00 6.1 4.3 88 0.0 36 1   101.63     LegendNANA
21:00 6.3 4.2 86 0.0   0   101.68     LegendNANA
22:00 7.2 5.0 86 0.0 15 3   101.70     LegendNANA
23:00 7.5 6.1 91 0.0 14 4   101.72     LegendNANA

Notes on Data Quality.

Legend

  • E = Estimated
  • M = Missing
  • NA = Not Available*
  • [empty] = Indicates an unobserved value
Date modified: